Terminal Aerodrome Forecast
Issued by NWS

Home | Current Version | Previous Version | Text Only | Print | Product List | Glossary On
Versions: 1 2 3 4 5 6 7 8 9 10 11 12 13 14
000
FTUS41 KAKQ 250530
TAFPHF
TAF
KPHF 250530Z 2506/2606 00000KT 5SM BR SKC
      TEMPO 2506/2509 3SM BR SKC
     FM250900 00000KT 1 1/2SM BR SKC
     FM251300 23003KT P6SM SKC
     FM251600 23007KT P6SM SKC
     FM260200 27007KT P6SM BKN200=

USA.gov is the U.S. government's official web portal to all federal, state and local government web resources and services.